Zurück zum Katalog

SL-8 R/B

AktivPO
NORAD 22488·ROCKET BODY·🇷🇺 Russia

Gestartet Feb 9, 1993 von Plesetsk Cosmodrome

Loading…

Nächste Überflüge (nächste 24 Stunden)

TLE

AktuellSource: Space-Track

Epoche: Sep 14, 2026, 12:44 UTC

1 22488U 93008B   26257.53056667 -.00000063  00000-0 -78187-4 0  9990
2 22488  82.9378  85.4180 0026367 120.3006 257.3896 13.78013983688909

Verfolge SL-8 R/B in Echtzeit mit AllMySat

Download on the App Store